Location: Hermaringen
(48.5952°N, 10.2585°E)
Time: 21:33:16
(UTC+00:00)

Timation 2 Rocket - Pass Details

Date: 18 November 2025
Orbit: 904 x 1074 km, 70.0° (Epoch: 10 December)

Event Time Altitude Azimuth Distance (km) Brightness Sun altitude
Rises 17:22:11 0° 216° (SW) 3,846 7.8 -17.3°
Reaches altitude 10° 17:24:50 10° 219° (SW) 2,901 7.2 -17.8°
Maximum altitude 17:31:40 70° 303° (WNW) 1,141 4.4 -18.9°
Enters shadow 17:38:22 11° 27° (NNE) 2,843 6.1 -20.0°
